Location: Newark
(33.6333°S, 78.8500°W)
Time: 18:12:28
(UTC+00:00)

Tiros 1 - Pass Details

Date: 27 October 2019
Orbit: 630 x 664 km, 48.4° (Epoch: 17 November)

Event Time Altitude Azimuth Distance (km) Brightness Sun altitude
Rises 20:05:41 0° 226° (SW) 2,954 10.9 42.9°
Reaches altitude 10° 20:08:49 10° 205° (SSW) 2,037 9.9 42.3°
Maximum altitude 20:11:49 17° 165° (SSE) 1,636 9.2 41.7°
Drops below altitude 10° 20:14:49 10° 125° (SE) 2,026 9.4 41.1°
Sets 20:17:55 0° 104° (ESE) 2,930 10.1 40.5°
